Theta_e
319 320 326 327 328 329 330 331 330 329 329 328 327 325 324 324 322 312 305 314 314 327 321 309 311 308 308 305 305 301 293 290 294 293 295 299 297 298 302 303 310 316 317 321 325
320 320 323 326 327 328 328 329 329 328 328 327 325 323 325 323 310 306 317 330 330 329 308 307 307 307 303 302 301 297 293 294 298 297 297 298 298 299 301 301 311 315 321 325 327
319 319 319 325 326 327 327 328 328 327 326 325 325 325 324 321 304 304 324 330 332 324 308 308 308 305 301 301 298 298 295 296 297 300 300 299 297 297 300 297 309 315 319 323 325
318 320 320 324 324 326 326 327 327 327 326 325 325 324 323 313 297 306 327 331 331 310 307 304 304 302 299 297 300 295 298 297 299 301 299 298 298 296 298 299 306 322 324 323 323
317 319 320 321 323 324 326 326 327 326 325 324 324 323 312 302 302 311 327 329 316 307 304 302 301 301 298 299 299 295 294 298 299 300 297 298 295 296 296 297 318 324 324 323 323
315 318 319 319 322 323 324 325 326 325 324 323 323 321 305 294 309 315 319 311 308 304 302 302 301 301 299 299 296 297 295 295 298 298 298 297 294 297 298 303 319 322 321 322 323
314 317 318 319 322 322 322 325 325 324 324 323 322 313 304 300 308 315 313 308 309 304 302 303 303 300 298 297 298 296 292 292 294 297 295 297 294 295 298 307 317 318 319 319 320
311 314 318 318 321 321 322 323 324 322 321 322 321 312 299 309 309 312 310 307 309 305 304 305 303 300 297 298 296 293 291 287 291 295 294 296 290 296 297 303 309 310 313 317 318
310 312 317 318 320 320 321 323 321 321 318 315 309 306 296 312 304 307 304 303 304 302 302 305 302 297 295 291 288 287 285 286 289 294 291 292 290 295 296 298 301 304 308 314 318
310 313 313 318 319 320 320 321 320 318 313 311 309 302 306 299 304 306 304 303 300 299 298 298 296 291 289 287 284 284 284 286 287 291 290 289 290 290 292 294 295 296 297 302 310
311 314 313 318 319 320 319 315 306 303 304 299 299 300 305 306 307 303 304 301 299 295 289 292 288 285 288 289 289 289 287 287 288 291 289 289 289 291 292 290 290 290 291 294 300
311 314 314 318 320 320 315 304 302 304 295 303 302 302 308 306 298 301 303 295 293 288 290 288 285 290 293 292 291 289 286 284 288 290 290 288 289 291 290 291 291 291 291 291 293
310 314 315 318 319 316 309 305 308 307 296 297 302 299 301 305 299 297 299 295 291 288 287 286 289 293 292 289 288 287 286 285 286 288 288 286 286 288 291 291 291 292 293 292 293
310 315 316 318 313 312 305 307 309 303 287 291 294 297 300 300 295 303 302 297 291 288 288 288 291 291 289 288 289 285 290 289 288 285 281 284 278 283 287 290 290 292 292 293 292
310 315 316 318 312 306 306 308 307 299 275 292 294 303 300 295 296 297 302 295 289 289 288 286 288 288 288 289 290 287 291 290 287 283 282 281 279 282 284 286 289 293 294 294 294
310 315 316 315 313 310 309 307 301 285 274 287 294 293 292 295 294 296 297 297 296 290 288 288 290 291 290 290 290 290 288 286 284 283 278 281 280 280 283 288 289 289 292 292 293
310 315 315 316 307 311 309 302 284 277 288 285 287 291 290 290 291 293 291 288 287 282 282 285 285 288 290 288 288 287 285 277 277 277 276 280 278 283 287 288 289 290 290 290 291
309 314 314 315 313 311 305 292 277 283 284 290 289 290 286 289 288 290 290 286 287 286 283 282 279 286 289 288 286 285 285 278 274 274 277 280 278 284 289 290 289 291 289 290 291
308 312 311 314 312 309 297 283 281 284 288 287 289 285 283 288 288 288 288 288 288 287 283 281 281 287 289 289 290 285 282 286 280 273 276 279 281 288 288 290 289 291 290 290 292
306 307 307 313 311 304 291 286 284 290 290 290 283 286 282 285 284 286 286 290 289 288 291 286 281 286 288 289 289 287 290 283 280 273 272 277 278 281 285 287 288 289 290 291 292
303 298 308 313 308 296 285 285 288 292 293 288 285 284 285 285 286 285 286 288 292 289 289 289 285 283 287 285 284 284 283 284 284 281 276 273 277 285 289 289 289 290 291 292 292
296 290 309 309 291 292 286 288 293 290 293 290 289 287 287 287 284 286 284 287 293 291 287 290 286 279 283 287 289 287 287 286 282 278 279 279 279 286 287 288 289 289 290 291 292
286 291 307 305 284 285 290 289 291 290 291 289 288 289 290 288 284 287 287 292 293 292 290 291 283 278 281 285 287 284 285 286 284 282 277 276 280 289 288 290 288 289 289 291 291
286 284 293 297 294 289 288 288 287 293 291 291 289 291 289 287 288 286 287 291 293 293 296 295 286 283 280 283 285 283 286 285 286 279 278 281 282 285 287 288 290 290 290 290 291
285 284 285 286 288 291 291 290 287 287 290 292 289 290 288 284 285 285 288 289 291 295 293 291 279 282 281 285 286 285 285 286 285 287 282 286 283 286 287 288 290 290 291 291 291
284 284 285 290 292 291 291 288 288 288 289 288 288 289 289 285 288 285 287 287 288 289 291 289 277 280 277 283 283 283 286 287 287 287 286 284 284 289 290 288 289 292 292 291 291
286 285 286 291 290 289 289 288 289 291 290 293 291 289 288 289 292 294 293 292 291 290 288 287 280 275 277 279 280 276 283 284 285 288 287 283 289 291 287 288 290 290 290 291 291
Wind_Speed
15 14 23 21 19 17 17 16 18 18 14 12 7 8 7 8 6 2 6 7 7 11 6 3 2 3 4 3 2 3 4 3 7 8 5 6 6 1 2 7 4 3 7 8 12
16 17 19 23 21 19 18 18 17 18 17 15 12 6 6 8 3 6 6 8 8 11 7 7 5 5 5 4 2 4 3 7 4 6 8 6 7 8 6 4 4 3 6 15 15
17 16 21 24 22 20 19 17 18 18 18 16 14 12 13 8 4 8 13 9 12 9 7 4 6 5 6 1 2 3 4 3 2 4 7 11 6 3 11 1 7 10 17 13 12
19 17 19 23 22 21 20 18 16 18 16 16 19 13 10 2 10 2 9 13 11 8 7 6 5 4 4 3 2 2 4 4 3 2 5 11 9 5 3 7 10 16 21 14 14
12 19 17 11 22 22 20 19 18 17 18 15 15 11 8 3 7 2 4 12 8 7 9 7 6 6 6 5 2 2 2 3 2 6 5 5 5 7 6 2 10 12 14 16 15
11 17 17 14 21 22 21 21 20 18 17 16 15 11 4 7 1 6 7 10 8 6 6 6 10 7 7 4 7 4 3 3 5 3 3 7 3 5 4 6 11 16 15 14 15
10 13 18 16 19 22 21 20 21 19 16 16 13 2 4 8 4 5 6 5 7 5 6 4 5 5 7 3 5 5 5 3 3 3 2 4 2 6 6 9 14 13 11 10 11
10 12 20 18 17 21 20 21 22 21 18 14 11 3 2 4 1 6 2 3 5 1 2 6 4 4 3 5 4 5 5 4 2 1 3 1 8 6 9 13 11 10 8 10 11
10 13 16 20 19 22 20 22 22 23 21 11 8 4 5 12 3 4 3 8 7 0 2 4 5 5 2 7 4 4 4 3 2 4 1 2 6 2 8 9 11 11 11 11 10
13 16 15 21 22 22 24 24 26 26 16 10 6 7 5 6 4 5 3 7 6 6 3 3 4 4 3 3 11 5 4 3 5 6 4 3 6 2 6 8 11 9 8 9 10
16 16 17 23 26 26 28 17 13 8 10 7 13 3 6 4 4 4 4 5 5 6 6 2 5 7 7 6 7 6 5 6 1 1 3 8 6 7 6 4 8 9 9 10 13
17 16 20 25 25 31 19 15 13 9 11 9 16 7 7 10 3 4 7 7 6 6 6 5 5 8 10 9 7 6 6 3 1 1 2 4 10 8 5 7 8 9 9 10 7
16 18 24 24 30 23 20 18 15 19 7 3 8 5 10 9 6 9 11 5 8 8 6 8 8 8 9 6 7 5 6 5 5 3 1 1 7 5 8 6 5 8 9 7 12
20 22 30 26 24 19 13 15 22 6 6 4 6 5 6 9 6 1 6 6 4 10 9 6 3 12 6 9 8 7 7 7 6 6 5 3 6 5 7 9 7 11 10 11 11
23 27 33 33 17 21 20 16 16 4 9 13 5 2 6 7 14 8 6 2 9 8 8 8 8 7 5 8 8 7 7 10 5 2 4 1 2 8 1 5 9 14 15 13 11
25 28 33 24 12 21 15 13 5 5 8 10 11 10 9 2 2 10 10 3 3 6 4 7 1 7 9 2 7 9 9 7 5 3 3 7 6 6 5 9 6 6 12 10 9
24 32 30 17 14 21 18 12 6 11 11 10 14 18 20 8 5 21 20 11 9 8 8 2 1 2 3 6 2 5 10 3 1 1 6 1 2 8 7 10 7 8 10 10 9
25 29 24 10 18 21 16 14 8 16 12 9 14 21 14 13 1 12 20 12 5 5 7 10 6 7 4 6 8 8 9 8 6 4 4 1 7 9 8 10 8 5 3 6 7
24 16 17 11 22 19 20 16 18 23 12 13 17 22 6 11 9 7 18 25 13 10 9 7 4 2 2 2 10 6 5 7 9 4 3 6 6 12 5 9 6 6 2 6 8
7 15 17 16 21 17 19 17 6 17 15 21 11 15 21 25 9 15 19 19 15 9 8 7 6 0 3 2 2 7 9 3 3 6 4 5 5 7 8 10 6 7 8 7 6
7 12 15 21 18 16 18 9 7 9 23 12 8 11 13 20 12 15 23 4 20 9 7 8 6 2 2 7 9 3 5 2 7 6 7 2 8 10 15 10 13 12 9 9 8
5 9 14 18 14 13 20 9 7 14 10 5 6 7 18 23 8 17 14 4 17 11 8 2 7 6 7 2 3 3 10 7 7 5 2 3 8 1 6 6 6 7 8 7 7
4 1 10 20 12 15 13 3 6 13 21 9 6 5 9 17 8 10 7 11 19 16 15 9 0 5 5 5 1 5 2 5 5 3 7 6 6 3 4 2 3 6 6 8 8
4 1 5 14 3 26 25 19 8 11 12 4 8 9 16 12 4 15 8 5 17 15 11 9 4 8 14 16 10 8 10 7 7 3 3 17 4 5 5 5 4 6 6 8 8
2 3 3 17 12 24 21 20 9 12 8 7 5 17 15 10 9 8 6 5 8 13 8 10 7 4 1 6 8 7 8 10 14 28 13 24 12 10 9 10 7 6 6 7 8
3 2 4 14 22 27 21 24 25 9 14 22 13 17 10 11 17 12 9 5 13 3 20 5 1 5 2 2 3 6 10 17 21 21 18 7 20 9 10 6 6 8 8 9 9
1 1 6 18 20 17 21 29 27 14 4 17 14 11 10 8 7 10 6 6 15 17 11 12 8 4 11 1 6 5 21 15 14 16 16 15 26 8 4 7 10 10 8 10 10
Wind_Direction
236 268 224 201 196 194 188 180 176 170 167 163 159 178 160 137 126 144 211 204 198 166 136 181 60 60 60 42 22 94 70 180 198 154 201 194 132 156 67 108 72 352 156 170 134
230 241 263 205 193 192 190 179 176 169 154 158 159 180 162 161 127 231 227 202 188 156 136 161 125 94 24 321 334 104 134 216 203 186 179 157 129 144 110 113 44 51 82 125 138
231 239 272 202 191 188 189 181 171 169 159 153 147 173 177 180 84 242 190 211 167 167 155 144 133 107 139 191 232 176 203 227 242 237 161 149 120 110 123 175 197 166 147 145 154
238 231 241 203 193 186 185 183 174 160 162 157 153 168 156 104 192 162 179 171 175 161 124 127 117 72 126 172 235 216 244 273 316 67 129 158 132 103 159 203 169 167 158 153 165
276 228 219 237 195 188 178 179 168 167 158 154 141 150 127 200 248 88 200 153 142 147 164 141 131 121 151 160 325 216 271 327 352 89 112 98 120 164 208 93 127 146 162 167 172
301 227 205 212 204 191 178 178 162 159 158 153 148 141 107 180 251 96 128 137 153 135 157 144 177 182 152 164 208 198 94 332 347 92 101 126 141 146 233 114 141 157 177 180 180
290 241 202 210 214 186 185 174 160 144 145 142 133 127 81 211 333 133 128 161 146 145 153 206 157 155 145 140 179 154 109 41 331 341 110 140 93 187 161 140 155 176 185 187 195
315 298 204 207 216 182 179 167 160 138 123 118 113 94 146 354 321 105 155 112 135 284 239 163 156 121 152 142 75 121 74 139 256 301 324 30 232 222 167 149 180 178 186 196 203
287 286 228 198 210 176 174 154 142 131 125 110 55 107 158 318 191 207 164 153 132 267 354 125 119 149 70 114 81 12 170 180 251 193 137 133 236 252 166 166 185 187 196 199 203
268 281 260 201 195 185 157 136 137 122 121 82 61 75 282 198 191 164 164 137 129 121 61 99 70 112 64 138 187 161 147 163 180 228 169 189 256 255 186 171 195 202 205 209 205
269 267 241 204 189 176 141 132 148 125 180 163 171 304 159 205 118 160 174 106 97 89 148 211 120 181 169 178 159 164 150 177 218 208 150 204 244 241 196 191 216 218 215 220 219
272 258 224 201 172 163 154 161 177 141 162 225 176 229 134 155 119 162 133 124 129 150 123 62 199 207 170 192 162 155 151 170 312 2 175 168 251 245 203 220 211 211 225 227 233
278 242 213 188 168 161 180 162 140 119 128 197 170 207 143 128 208 192 150 149 139 142 164 150 212 164 160 179 164 180 156 171 186 154 49 130 289 222 241 228 210 223 221 227 215
287 220 199 182 166 164 190 163 148 113 95 156 174 235 151 150 159 121 184 151 148 169 136 172 202 168 179 197 149 172 183 155 154 136 206 149 267 256 240 238 210 229 216 221 211
303 197 189 184 155 175 167 160 145 63 151 157 165 126 144 181 136 189 289 58 156 158 123 214 158 149 188 201 158 200 140 144 140 105 124 217 131 268 283 255 230 230 228 219 209
305 190 185 189 164 158 146 146 79 107 198 177 150 167 146 182 229 129 149 325 169 128 66 182 171 171 191 130 181 145 100 59 64 89 270 204 157 272 205 210 235 231 228 210 181
315 190 180 189 166 154 143 152 124 192 147 164 174 164 177 156 167 168 169 172 171 131 159 98 252 263 169 98 26 129 128 61 350 275 233 44 130 248 244 246 225 245 235 204 181
315 184 186 171 155 144 158 158 164 192 179 133 155 157 168 143 225 194 177 170 234 133 127 156 210 174 187 185 172 184 154 150 177 175 218 147 232 244 230 265 248 274 285 163 164
309 183 187 193 162 157 154 174 195 178 154 137 124 158 162 190 135 150 191 186 175 178 153 138 213 81 140 189 161 208 190 159 100 28 77 223 283 307 219 262 239 232 189 188 165
223 179 195 148 161 161 163 188 145 157 135 146 155 179 173 181 143 177 180 201 189 172 149 195 127 268 182 136 265 189 149 133 359 135 246 267 265 227 268 239 234 227 209 191 183
249 168 183 154 169 159 183 178 127 165 148 158 155 153 167 179 178 187 188 230 186 191 127 132 105 190 158 203 163 144 184 122 124 153 168 207 254 218 211 213 206 220 192 194 191
291 180 169 158 163 172 181 171 130 161 142 165 115 87 165 176 156 191 194 184 181 148 157 133 121 147 194 279 259 210 195 167 184 212 247 151 264 284 238 251 202 238 197 187 181
94 153 177 161 165 174 162 196 136 165 181 154 131 132 139 167 170 184 174 212 177 164 165 174 170 99 40 340 210 211 208 176 99 73 205 149 250 309 263 154 152 180 186 182 183
103 198 227 171 170 162 173 187 155 184 175 130 119 114 141 168 220 183 148 178 185 181 150 102 146 157 190 211 125 178 187 178 156 166 160 237 170 254 237 207 192 161 177 184 184
87 229 274 169 173 174 168 166 158 158 191 136 145 169 157 166 166 164 136 115 172 172 153 134 177 130 281 169 154 170 187 171 193 224 187 244 204 209 204 200 208 192 172 173 189
168 146 248 158 157 165 169 186 176 155 166 190 161 169 169 158 190 165 124 139 173 130 180 165 137 105 293 44 91 172 179 191 216 228 247 244 273 161 209 161 174 207 192 205 206
37 282 264 163 164 157 188 178 184 151 25 177 143 151 165 178 130 152 151 132 157 169 162 160 124 108 225 123 72 347 214 199 227 223 224 233 246 187 171 196 213 219 195 211 220